Regional Weather Roundup
Issued by NWS Upton, NY

Current Version | Previous Version | Text Only | Print | Product List | Glossary On
Versions: 1 2 3 4 5 6 7 8 9 10 11 12 13 14 15 16 17 18 19 20 21 22 23 24 25 26 27 28 29 30 31 32 33 34 35 36 37 38 39 40 41 42 43 44 45 46 47 48 49 50
000 ASUS41 KOKX 060408 RWROKX REGIONAL WEATHER ROUNDUP NATIONAL WEATHER SERVICE NEW YORK NY 1200 AM EDT MON JUL 06 2015 NOTE: "FAIR" INDICATES FEW OR NO CLOUDS BELOW 12,000 FEET WITH NO SIGNIFICANT WEATHER AND/OR OBSTRUCTIONS TO VISIBILITY. NYZ071-072-176-178-NJZ106-104-060500- NEW YORK CITY METRO AREA CITY SKY/WX TMP DP RH WIND PRES REMARKS CENTRAL PARK CLEAR 74 64 71 CALM 30.17S LAGUARDIA APRT PTCLDY 76 65 68 S5 30.14R KENNEDY INTL PTCLDY 71 67 87 S5 30.16R NEWARK/LIBERTY PTCLDY 73 66 78 S5 30.14R BRNX BOT. GARD N/A 70 64 83 E1 30.15R TETERBORO CLEAR 72 64 76 CALM 30.13S $$ NYZ177-179-078>081-060500- LONG ISLAND NEW YORK CITY SKY/WX TMP DP RH WIND PRES REMARKS FARMINGDALE PTCLDY 71 65 81 SW5 30.16R ISLIP MOCLDY 69 64 84 SW5 30.14S SHIRLEY CLEAR 69 64 84 SW3 30.16S WESTHAMPTON PTCLDY 64 63 96 CALM 30.17S MONTAUK POINT N/A 70 63 78 W5 30.17S $$ NYZ052-065-067-060500- HUDSON VALLEY CITY SKY/WX TMP DP RH WIND PRES REMARKS WHITE PLAINS PTCLDY 66 63 90 CALM 30.15S NEWBURGH CLEAR 68 64 88 CALM 30.17R MONTGOMERY FAIR 64 63 96 CALM 30.15R POUGHKEEPSIE CLEAR 66 62 87 CALM 30.14R ALBANY PTCLDY 69 58 67 CALM 30.14S $$ NJZ001-105-106-008-010-013-015-019>022-104-060500- NEW JERSEY CITY SKY/WX TMP DP RH WIND PRES REMARKS NEWARK/LIBERTY PTCLDY 73 66 78 S5 30.14R TETERBORO CLEAR 72 64 76 CALM 30.13S CALDWELL CLEAR 68 62 81 CALM 30.15S MORRISTOWN CLEAR 64 61 88 CALM 30.15S SOMERVILLE PTCLDY 65 62 90 CALM 30.13R FOG SUSSEX CLEAR 64 62 93 CALM 30.16S ANDOVER N/A 64 62 93 CALM 30.17R TRENTON MOCLDY 73 66 78 CALM 30.14S MILLVILLE CLOUDY 70 68 93 CALM 30.15F ATLANTIC CITY CLOUDY 73 67 81 CALM 30.16S WRIGHTSTOWN CLOUDY 69 67 93 S5 30.13S TOMS RIVER MOCLDY 68 64 88 CALM 30.16S BELMAR PTCLDY 70 63 78 SW5 30.16R $$ PAZ047>061-062-071-060500- EASTERN PENNSYLVANIA CITY SKY/WX TMP DP RH WIND PRES REMARKS PHILADELPHIA CLOUDY 74 67 78 S3 30.16R ALLENTOWN MOCLDY 68 64 87 CALM 30.15R SCRANTON PTCLDY 66 58 75 E7 30.17R $$ CTZ002-004>006-009-010-012-RIZ004-006-007-MAZ004-011-015-060500- SOUTHERN NEW ENGLAND IN CT CITY SKY/WX TMP DP RH WIND PRES REMARKS BRADLEY INTL PTCLDY 69 61 75 S5 30.14R HARTFORD CLEAR 69 64 84 S5 30.14S DANBURY PTCLDY 65 60 84 SW3 30.17S WTRBRY/OXFORD MOCLDY 66 61 82 CALM 30.19R BRIDGEPORT PTCLDY 72 65 78 CALM 30.15S MERIDEN PTCLDY 67 63 87 CALM 30.15S NEW HAVEN MOCLDY 69 64 84 S3 30.15F CHESTER FAIR 68 64 88 W5 30.17S GROTON CLEAR 67 63 87 W5 30.15S WILLIMANTIC CLEAR 67 62 84 CALM 30.16R IN RI CITY SKY/WX TMP DP RH WIND PRES REMARKS PROVIDENCE CLEAR 70 63 78 W8 30.16R BLOCK ISLAND CLEAR 66 63 88 W9 30.16S WESTERLY CLEAR 68 64 87 W5 30.16S IN MA CITY SKY/WX TMP DP RH WIND PRES REMARKS BOSTON CLEAR 73 61 65 SW7 30.13R WORCESTER CLEAR 68 58 70 W7 30.17S WESTFIELD CLEAR 63 60 90 CALM 30.14S PROVINCETOWN CLEAR 64 9 11 SW7 30.13R NANTUCKET CLEAR 66 62 87 W12 30.15R $$ ANZ330-335-338-340-345-350-353-355-060500- COASTAL MARINE OBSERVATIONS STATION/POSITION TIME SKY/WX TEMP WIND PRES VSBY WAVE AIR SEA DIR/SP/G HT/PER (UTC) (F) (DEG/KT/KT) (MB) (MI) (FT/S) NY HARB ENTRANCE 0350 71 70 200/ 8/ 8 1020.6 3/ 8 4S FIRE IS 0303 70 N/A 3/ 7 20S FIRE ISLAND 0350 71 70 210/ 8/ 8 1020.8 3/ 8 GREAT SOUTH BAY 0330 73 76 250/ 12/ 12 N/A 23SW MTP 0350 69 69 240/ 6/ 8 1020.8 3/ 7 HUDSON CANYON NOT AVBL KINGS POINT 0300 73 70 180/ 4/ 7 1020.1 CENTRAL LI SOUND NOT AVBL EASTERN LI SOUND 0300 67 65 260/ 4/ 8 N/A ROBBINS REEF 0300 73 160/ 6/ 8 1019.5 $$ >>>>>>>>>>>>>>>>>>>>>>>>>>>> KEY <<<<<<<<<<<<<<<<<<<<<<<<<<< > < > SKY/WX - SKY CONDITION/PRESENT WEATHER < > TMP - TEMPERATURE IN FAHRENHEIT < > DP - DEWPOINT IN FAHRENHEIT < > RH - RELATIVE HUMIDITY IN PERCENT < > WIND - DIRECTION AND SPEED IN MPH < > PRES - MEAN SEA LEVEL PRESSURE IN INCHES OF HG < > WCI - WIND CHILL INDEX < > VSB - VISIBILITY IN MILES < > HX - HEAT INDEX < > TC - TEMPERATURE IN CELSIUS < > VRB - VARIABLE WIND DIRECTION < > < >>>>>>>>>>>>>>>>>>>>>>>>>>>> KEY <<<<<<<<<<<<<<<<<<<<<<<<<<<

USA.gov is the U.S. government's official web portal to all federal, state and local government web resources and services.